Regional Weather Roundup
Issued by NWS

Home | Current Version | Previous Version | Text Only | Print | Product List | Glossary On
Versions: 1 2 3 4 5 6 7 8 9 10 11 12 13 14 15 16 17 18 19 20 21 22 23 24 25 26 27 28 29 30 31 32 33 34 35 36 37 38 39 40 41 42 43 44 45 46 47 48 49 50
000
ASUS46 KLOX 021113
RWRCA

SOUTHERN CALIFORNIA WEATHER ROUNDUP
NATIONAL WEATHER SERVICE OXNARD CALIFORNIA
400 AM PDT TUE JUN 02 2015

NOTE: "FAIR" INDICATES FEW OR NO CLOUDS BELOW 12,000 FEET WITH NO
SIGNIFICANT WEATHER AND/OR OBSTRUCTIONS TO VISIBILITY.

  -  STATIONS PRECEEDED BY AN ASTERISK (*) ARE NOT NWS OR FAA
     STATIONS AND ARE NOT SUBJECT TO NWS AND FAA QUALITY CONTROL.

CAZ041-042-087-021200-
LA AND ORANGE COUNTY COASTAL AREAS


CITY           SKY/WX    TMP DP  RH WIND       PRES   REMARKS
L.A. DOWNTOWN  CLEAR     60  55  83 CALM      29.98S
L.A. AIRPORT   PTCLDY    59  56  89 SE7       29.98S
LONG BEACH     CLEAR     62  58  86 CALM      29.98S

CITY           SKY/WX    TMP DP  RH WIND       PRES   REMARKS
AVALON           N/A     55 N/A N/A MISG        N/A
FULLERTON      CLEAR     61  55  81 CALM      29.97S
HAWTHORNE      CLEAR     62  55  77 SE3       29.98S
*LOS ALAMITOS  FAIR      58  56  94 SE2       29.98S
SANTA ANA      CLEAR     61  57  87 CALM      29.98S
STA MONICA APT CLEAR     58  55  90 CALM      29.98S
*STA MON PIER    N/A     60  57  90 CALM      29.98R
*UCLA            N/A     57  54  88 NE3       29.96R

$$

CAZ547-548-048-021200-
LA COUNTY VALLEYS AND INLAND EMPIRE


CITY           SKY/WX    TMP DP  RH WIND       PRES   REMARKS
BURBANK        CLEAR     60  54  80 E3        29.98R
VAN NUYS       CLEAR     58  54  86 S3        29.98R

CITY           SKY/WX    TMP DP  RH WIND       PRES   REMARKS
CORONA AIRPORT SUNNY     50  49  96 CALM      29.99S
CHINO          CLEAR     57  53  86 CALM      30.00S
MARCH AFB      CLEAR     53  50  90 W2        29.99S
*NORTHRIDGE      N/A     59  52  77 NE1         N/A
ONTARIO        CLEAR     57  52  83 W3        29.98S
*PASADENA        N/A     59  55  88 E3          N/A
RIVERSIDE      CLEAR     60  54  80 CALM      29.99S
SAN BERNARDINO NOT AVBL
*SAN GABRIEL     N/A     58  54  86 CALM      30.06S
*WHITEMAN AP   NOT AVBL
*WOODLAND HILL   N/A     55  52  88 CALM        N/A

$$

CAZ054-055-021200-
LA AND SAN BERNARDINO COUNTY MOUNTAINS


CITY           SKY/WX    TMP DP  RH WIND       PRES   REMARKS
*BIG BEAR AIRP SUNNY     48  14  25 W10       30.15F
SANDBERG       CLEAR     52  46  80 N14       30.07F

$$

CAZ028-029-059-060-099-021200-
ANTELOPE VALLEY AND SURROUNDING AREAS


CITY           SKY/WX    TMP DP  RH WIND       PRES   REMARKS
LANCASTER      CLEAR     61  47  59 W20       29.97S
PALMDALE       CLEAR     58  41  53 W8        29.98F

CITY           SKY/WX    TMP DP  RH WIND       PRES   REMARKS
29 PALMS       CLEAR     67  33  28 W12       29.97R
BARSTOW/DAGGET CLEAR     71  36  27 SW22      29.91S
BISHOP         CLEAR     48  28  46 NW3       29.97S
CHINA LAKE     CLEAR     61  26  26 W10       29.86R
EDWARDS AFB    CLEAR     62  44  51 SW14      29.92F
MOJAVE         FAIR      64  45  48 SW21G33   29.95F
NEEDLES        CLEAR     80  29  15 W12       29.80S
VICTORVILLE    CLEAR     57  34  41 CALM      29.98S

$$

CAZ039-040-021200-
VENTURA AND SANTA BARBARA COUNTY COAST


CITY           SKY/WX    TMP DP  RH WIND       PRES   REMARKS
CAMARILLO      MOCLDY    56  51  84 N3        29.97R
OXNARD AIRPORT CLEAR     58  54  86 NE5       29.96S
*POINT MUGU    CLEAR     61  56  83 SE8       29.97S
SBA APT/GOLETA CLEAR     55  53  93 CALM      29.96S
*SANTA BARBARA   N/A     58  51  80 CALM      30.05R
*VENTURA         N/A     56  51  85 CALM      29.59R

$$

CAZ044-045-021200-
VENTURA COUNTY VALLEYS


CITY           SKY/WX    TMP DP  RH WIND       PRES   REMARKS
*SIMI VALLEY     N/A     57  52  82 CALM      29.92S
*OJAI            N/A     49  47  90 CALM      29.92R
*FILLMORE        N/A     53  48  83 SW2       29.87R

$$

CAZ053-021200-
VENTURA COUNTY MOUNTAINS


CITY           SKY/WX    TMP DP  RH WIND       PRES   REMARKS

$$

CAZ034-035-036-021200-
CENTRAL COAST AND SANTA YNEZ VALLEY


CITY           SKY/WX    TMP DP  RH WIND       PRES   REMARKS
SAN LUIS OBISP CLOUDY    55  54  96 W5        30.03S
SANTA MARIA    FOG       56  55  97 N6        30.03F VSB 1/2

CITY           SKY/WX    TMP DP  RH WIND       PRES   REMARKS
*CAL POLY SLO    N/A     55  55 100 SW2         N/A
*LOMPOC        CLOUDY    55  52  88 N3        30.04S
*PISMO BEACH     N/A     55  53  94 CALM      30.03S
*SANTA YNEZ    FAIR      54  50  87 CALM      30.02S

$$

CAZ037-038-051-021200-
SAN LUIS OBISPO COUNTY INTERIOR AND CUYAMA VALLEY


CITY           SKY/WX    TMP DP  RH WIND       PRES   REMARKS
*CUYAMA          N/A     53  47  79 SE3       29.96S
PASO ROBLES    CLEAR     56  53  90 NW12      30.03S

$$

CAZ032-033-061-021200-
SOUTHERN DESERTS


CITY           SKY/WX    TMP DP  RH WIND       PRES   REMARKS
BLYTHE         CLEAR     71  42  35 VRB3      29.81R
IMPERIAL       CLEAR     78  31  17 NW10      29.80S
PALM SPRINGS   CLEAR     73  40  30 CALM      29.83S
THERMAL        CLEAR     79  40  24 N16       29.77F

$$

ELSEWHERE ACROSS THE WESTERN UNITED STATES AND MEXICO


CITY           SKY/WX    TMP DP  RH WIND       PRES   REMARKS
DENVER, CO     PTCLDY    55  49  80 W9        29.98R
GRAND CANYON,  PTCLDY    35  25  66 NE6       30.17S WCI  30
HONOLULU, HI   PTCLDY    75  66  73 E10       30.05F
KAHULUI, MAUI  CLOUDY    75  68  78 NE12      30.06F
LAKE TAHOE, CA CLEAR     44  31  60 CALM      30.13F
LAS VEGAS, NV  PTCLDY    75  34  22 S18G28    29.80R
MAMMOTH LAKES, FAIR      39  21  48 S3        30.14S
MEXICO CITY, M MOCLDY    55  48  76 NE3       30.33S
PHOENIX, AZ    MOCLDY    79  37  22 E7        29.85R
PORTLAND, OR   CLOUDY    56  51  84 VRB6      30.03R
RENO, NV       CLEAR     53  38  56 NE3       30.08R
SALT LAKE CITY PTCLDY    60  47  61 CALM      29.89R
SAN DIEGO, CA  PTCLDY    62  55  77 CALM      30.00F
SAN FRANCISCO, CLOUDY    57  54  89 W7        30.05S
SAN JOSE, CA   CLOUDY    59  53  80 CALM      30.04F
SEATTLE, WA    CLOUDY    55  52  89 S12       29.97S
TIJUANA, MEX   CLEAR     57  52  82 CALM      30.01F

$$

STATION/POSITION TIME  TEMP    WIND        PRES    VSBY  WAVE
                       AIR SEA DIR/SP/G                  HT/PER
                 (UTC) (F)     (DEG/KT/KT) (MB)    (MI)  (FT/S)
POINT ARGUELLO B NOT AVBL
WEST SANTA BARBA 1050   56 56  320/ 19/ 25 1015.0F         4/ 4
POINT CONCEPTION NOT AVBL
EAST SANTA BARBA 1000   59 59  230/  4/  4 1015.3F
SANTA MONICA BAY 1050   61 64   60/  4/  6 1015.1S         3/ 5


USA.gov is the U.S. government's official web portal to all federal, state and local government web resources and services.